Location: Shepherdstown, WV
(39.4326°N, 77.8042°W)
Time: 18:25:20
(UTC-04:00)

Vanguard 1 Rocket - Pass Details

Date: 14 August 2021
Orbit: 650 x 4226 km, 34.3° (Epoch: 19 September)

Event Time Altitude Azimuth Distance (km) Brightness Sun altitude
Rises 06:04:13 0° 217° (SW) 7,460 11.5 -4.3°
Reaches altitude 10° 06:09:06 10° 212° (SSW) 6,781 11.4 -3.4°
Maximum altitude 06:32:01 49° 146° (SE) 4,929 11.3 0.8°
Drops below altitude 10° 06:53:35 10° 81° (E) 6,482 14.5 4.8°
Sets 06:58:02 0° 76° (ENE) 7,135 15.0 5.6°
